Other Public Products
Issued by NWS Grand Forks, ND

Home | Current Version | Previous Version | Text Only | Print | Product List | Glossary On
Versions: 1 2 3 4 5 6 7 8 9 10 11 12 13 14 15 16 17 18 19 20 21 22 23 24 25 26 27 28 29 30 31 32 33 34 35 36 37 38 39 40 41 42 43 44 45 46 47 48 49 50
000
FPUS83 KFGF 300931
OPUFGF
PRAIRIE TO PINES WEATHER ROUNDUP
NATIONAL WEATHER SERVICE EASTERN NORTH DAKOTA/GRAND FORKS ND
400 AM CDT SAT MAY 30 2015

 **SATELLITE DATA USED TO AUGMENT SKY COVER AT AUTOMATED STATIONS**
 *****  WEATHER ACROSS EASTERN NORTH DAKOTA  *****

CITY           SKY/WX    TMP DP  RH WIND       PRES   REMARKS
GRAND FORKS    CLEAR     34  25  69 N12       30.35S
GRAND FORKS AF CLEAR     32  24  72 N10       30.36R WCI  24
GRAND CITY NWS   N/A     32 N/A N/A N12         N/A  WCI  23
BUXTON           N/A     35  29  78 N10         N/A
DEVILS LAKE    CLEAR     34  21  60 NE10      30.37S
FARGO          CLEAR     37  29  72 N14       30.32R
WAHPETON ARPT  SUNNY     36  30  80 N12G20    30.30R
$$

 *****  WEATHER ACROSS CENTRAL AND WESTERN NORTH DAKOTA  *****

CITY           SKY/WX    TMP DP  RH WIND       PRES   REMARKS
JAMESTOWN      CLEAR     36  28  73 NE9       30.35R
BISMARCK       CLEAR     35  32  88 E5        30.35R
MINOT          CLEAR     34  29  82 E6        30.37R
MINOT AFB      CLEAR     34  34  99 E7        30.36S
GARRISON         N/A     39  32  76 E12       30.35R
WILLISTON      PTCLDY    43  34  70 E5        30.30S
DICKINSON      CLEAR     34  30  85 S7        30.29R
HETTINGER      CLEAR     30  28  92 CALM      30.31R
$$

 *****  OTHER OBSERVATIONS NORTHEAST NORTH DAKOTA  *****

CITY           SKY/WX    TMP DP  RH WIND       PRES   REMARKS
WALHALLA       FAIR      30  25  80 MISG      30.41R
LANGDON        FAIR      30  23  74 NE10      30.38R WCI  21
CAVALIER       FAIR      32  25  74 N7        30.39S
GRAFTON        FAIR      34  25  69 N10       30.39R
CANDO          FAIR      32  25  74 NE5       30.40R
FORT TOTTEN      N/A     35  23  62 E7        29.95S
ROLLA          FAIR      28  28 100 CALM      30.39S
RUGBY          NOT AVBL
 ***** THE ABOVE OBSERVATIONS ARE NON NWS ARE NOT QUALITY
        CONTROLLED AND MAY MIS-REPORT RAIN FOR SNOW...
$$

 *****  OTHER OBSERVATIONS SOUTHEAST NORTH DAKOTA *****

CITY           SKY/WX    TMP DP  RH WIND       PRES   REMARKS
COOPERSTOWN    NOT AVBL
VALLEY CITY    FAIR      34  27  75 NE12      30.35R
OAKES            N/A     37  32  81 N15       30.33R
GWINNER        NOT AVBL
BUFFALO        NOT AVBL
WYNDMERE         N/A     37  30  75 N12         N/A
 ***** THE ABOVE OBSERVATIONS ARE NON NWS ARE NOT QUALITY
       CONTROLLED AND MAY MIS-REPORT RAIN FOR SNOW...
$$

  *****  WEATHER ACROSS NORTHERN MINNESOTA  *****

CITY           SKY/WX    TMP DP  RH WIND       PRES   REMARKS
FLAG ISLAND    CLOUDY    37  28  70 N17       30.32R
WARROAD        CLOUDY    34  28  80 NW6       30.33S
ROSEAU         CLEAR     30  27  86 N6        30.34R WCI  24
HALLOCK        CLEAR     32  25  74 N8        30.38R WCI  25
THF RVR FALLS  CLEAR     34  27  75 N13       30.33S WCI  25
HALSTAD          N/A     34  25  68 N13         N/A
FOSSTON        CLEAR     30  28  93 N12       30.31R WCI  21
BAUDETTE       CLOUDY    38  28  67 N13       30.29R
WASKISH        CLOUDY    37  34  87 N5        30.29R
CROOKSTON      CLEAR     34  28  80 N8        30.36R
$$
  *****  WEATHER ACROSS CENTRAL AND WEST MINNESOTA  *****

CITY           SKY/WX    TMP DP  RH WIND       PRES   REMARKS
BEMIDJI        PTCLDY    35  32  89 N7        30.26S
PARK RAPIDS    CLEAR     39  33  79 N12       30.24R
WADENA         CLEAR     37  34  87 N10       30.23R
DETROIT LAKES  CLEAR     36  32  87 N7        30.28R
MOORHEAD       CLEAR     36  30  80 N13       30.33R
FERGUS FALLS   CLEAR     37  32  81 N12G17    30.28R
ELBOW LAKE     FAIR      40  35  83 N13       30.24S
MORRIS MN      PTCLDY    43  37  81 N13       30.23R
STAPLES        PTCLDY    39  36  87 N10       30.22R
WHEATON        PTCLDY    36  30  80 N12       30.29R
$$
  *****  WEATHER ELSEWHERE ACROSS MINNESOTA  *****

CITY           SKY/WX    TMP DP  RH WIND       PRES   REMARKS
DULUTH         PTCLDY    44  36  73 N10       30.13R
INTRNTL FALLS  CLOUDY    37  29  72 N12       30.25R
ELY            NOT AVBL
CLOQUET        CLEAR     41  34  75 N6        30.16R
BRAINERD       PTCLDY    44  35  70 N12       30.20R
HIBBING        CLEAR     40  34  79 N12       30.18R
ALEXANDRIA     CLEAR     43  36  76 N12G22    30.22R
SAINT CLOUD    CLEAR     44  38  79 N7        30.16R
MINNEAPOLIS    MOCLDY    50  41  71 N9        30.12R
$$

  *****  WEATHER ACROSS SOUTH DAKOTA  *****

CITY           SKY/WX    TMP DP  RH WIND       PRES   REMARKS
SIOUX FALLS    MOCLDY    46  39  76 N12G21    30.19R
BROOKINGS      MOCLDY    41  36  81 N14G20    30.23R
WATERTOWN      PTCLDY    40  33  76 NE16      30.23S
HURON          PTCLDY    40  37  89 N8        30.27R
SISSETON         N/A     39  32  76 N16       30.27S
ABERDEEN       CLEAR     42  34  73 NE12      30.31R
MITCHELL       CLEAR     42  39  89 NW9       30.26R
PIERRE         CLEAR     37  34  89 N7        30.29R
MOBRIDGE       CLEAR     42  37  82 E8        30.29R
RAPID CITY     CLEAR     35  33  92 CALM      30.30S
$$

  *****  SOME WEATHER IN NEARBY STATES *****

CITY           SKY/WX    TMP DP  RH WIND       PRES   REMARKS
GLASGOW MT     PTCLDY    44  34  67 E15       30.20F
GREAT FALLS MT PTCLDY    51  46  83 S10       30.05S
CHEYENNE WY    CLOUDY    43  42  97 SW9       30.31S FOG
SCOTTSBLUFF NE CLOUDY    47  45  93 SE7       30.30S
OMAHA NE       CLOUDY    52  47  83 N16       30.10R
DES MOINES IA  CLOUDY    58  54  86 N12       29.99R
DAVENPORT IA   CLOUDY    66  62  87 S7        29.94R
CHICAGO IL     CLOUDY    69  65  86 W6        29.93S
EAU CLAIRE WI  CLOUDY    52  47  83 N12G20    30.03R
LA CROSSE WI   LGT RAIN  61  57  87 N15       29.96R
$$

  *****  SOME NATIONAL WEATHER *****

CITY           SKY/WX    TMP DP  RH WIND       PRES   REMARKS
LA GUARDIA NY  PTCLDY    67  61  81 S7        30.19S
RALEIGH NC     PTCLDY    66  64  93 CALM      30.20R
ATLANTA GA     CLEAR     69  60  73 SE3       30.14S
NEW ORLEANS LA LGT RAIN  75  69  81 SE5       30.03S
OKLAHOMA CITY  PTCLDY    62  61  96 SW3       30.01R FOG
ALBUQUERQUE NM PTCLDY    61  44  53 E24G38    30.21R
SALT LAKE CITY MOCLDY    59  45  59 S7        30.11F
LOS ANGELES CA   N/A     57  57 100 CALM      29.92F FOG
BOISE ID       CLOUDY    71  42  35 NW9       29.93S
SEATTLE WA     MOCLDY    53  48  83 SW8       29.95S
$$

*** WEATHER ACROSS MANITOBA...SASKATCHEWAN AND ONTARIO ***
                ***ONTARIO***

CITY           SKY/WX    TMP DP  RH WIND       PRES   REMARKS
GERALDTON      DRIZZLE   39  37  93 NW8       30.07R FOG
THUNDER BAY    CLOUDY    46  41  81 N6        30.11R
SIOUX LOOKOUT  CLOUDY    32  21  64 N13G21    30.26S WCI  22
TORONTO        PTCLDY    68  63  83 S7        29.95F
BIG TROUT LK   FLURRIES  27  25  93 N9G21     30.24  WCI  17
PICKLE LAKE    NOT AVBL
DRYDEN         CLOUDY    32  23  69 N8        30.28R WCI  25
KENORA         CLOUDY    34  23  64 N8G20     30.31R
$$
                *** MANITOBA***

CITY           SKY/WX    TMP DP  RH WIND       PRES   REMARKS
BRANDON        CLEAR     27  21  80 CALM      30.42R
DAUPHIN        CLOUDY    30  27  86 W5        30.43R
ISLAND LAKE    PTCLDY    30  25  80 N9        30.39R WCI  22
PILOT MOUND      N/A     30  23  74 NE7         N/A  WCI  23
THE PAS        CLEAR     25  21  86 SE2       30.42S
THOMPSON       PTCLDY    25  23  93 VRB2      30.39S
WINNIPEG       PTCLDY    32  23  69 N14       30.40S WCI  22
LYNN LAKE      CLEAR     25  23  93 SW6       30.33F WCI  18
CHURCHILL      CLOUDY    30  25  80 SW7       30.30F WCI  23
GILLAM         PTCLDY    25  21  86 S6        30.36F WCI  18
$$
                ***SASKATCHEWAN***

CITY           SKY/WX    TMP DP  RH WIND       PRES   REMARKS
ESTEVAN        PTCLDY    36  28  75 E13G20    30.36R
KINDERSLEY     CLOUDY    45  27  49 SE20      30.23F
LLOYDMINSTER   CLOUDY    48  27  43 SE12      30.23S
PRINCE ALBERT  MOCLDY    32  27  80 E7        30.35F
REGINA         PTCLDY    39  28  65 E14       30.34S
YORKTON        CLEAR     32  27  80 S2        30.41S


USA.gov is the U.S. government's official web portal to all federal, state and local government web resources and services.